York, NE

11:57 AM CDT on April 24, 2017 (GMT -0500)
York Municipal

Weather History for KJYR - December, 2012

Change the Weather History Date:

Monday, December 31, 2012

  Actual Average Record
Temperature  
Mean Temperature 18 °F -  
Max Temperature 23 °F 31 °F 58 °F (1953)
Min Temperature 14 °F 9 °F -18 °F (1968)
Degree Days  
Heating Degree Days 46    
Moisture  
Dew Point 16 °F    
Average Humidity 86    
Maximum Humidity 93    
Minimum Humidity 74    
Precipitation  
Precipitation 0.00 in - - ()
Sea Level Pressure  
Sea Level Pressure 30.14 in    
Wind  
Wind Speed 11 mph (NNE)    
Max Wind Speed 21 mph    
Max Gust Speed 18 mph    
Visibility 9 miles    
Events Snow    
Averages and records for this station are not official NWS values.
T = Trace of Precipitation, MM = Missing Value Source: NWS Daily Summary

Daily Weather History Graph

Daily Weather History Graph

Search for Another Location

Airport or City:

Trip Planner

Search our weather history database for the weather conditions in past years. The results will help you decide how hot, cold, wet, or windy it might be!

Date:

Astronomy

Dec. 31, 2012 Rise Set
Actual Time 7:55 AM CST 5:12 PM CST
Civil Twilight 7:24 AM CST 5:43 PM CST
Nautical Twilight 6:49 AM CST 6:18 PM CST
Astronomical Twilight 6:16 AM CST 6:51 PM CST
Moon 8:46 PM CST (12/31) 9:35 AM CST (12/31)
Length of Visible Light 10h 19m
Length of Day
9h 17m
Waning Gibbous, 90% of the Moon is Illuminated
Dec 31
Waning Gibbous
Jan 4
Last Quarter
Jan 11
New
Jan 18
First Quarter
Jan 26
Full

Hourly Weather History & Observations

Time (CST) Temp. Windchill Dew Point Humidity Pressure Visibility Wind Dir Wind Speed Gust Speed Precip Events Conditions
12:15 AM 23.0 °F 15.8 °F 17.6 °F 80% 30.10 in 10.0 mi NNW 5.8 mph - N/A   Partly Cloudy
12:35 AM 23.0 °F 15.8 °F 15.8 °F 74% 30.10 in 10.0 mi NNW 5.8 mph - N/A   Clear
12:55 AM 21.2 °F 14.9 °F 15.8 °F 80% 30.11 in 10.0 mi NNW 4.6 mph - N/A   Clear
1:15 AM 19.4 °F - 15.8 °F 86% 30.12 in 10.0 mi Calm Calm - N/A   Clear
1:35 AM 19.4 °F 8.6 °F 14.0 °F 80% 30.12 in 10.0 mi NNW 9.2 mph - N/A   Clear
1:55 AM 19.4 °F 9.5 °F 15.8 °F 86% 30.12 in 10.0 mi North 8.1 mph - N/A   Partly Cloudy
2:15 AM 19.4 °F 6.6 °F 15.8 °F 86% 30.10 in 10.0 mi North 12.7 mph - N/A   Mostly Cloudy
2:35 AM 19.4 °F 6.0 °F 15.8 °F 86% 30.09 in 10.0 mi North 13.8 mph 18.4 mph N/A   Overcast
2:55 AM 21.2 °F 7.8 °F 15.8 °F 80% 30.11 in 10.0 mi North 15.0 mph - N/A   Overcast
3:15 AM 21.2 °F 6.8 °F 15.8 °F 80% 30.11 in 10.0 mi North 17.3 mph - N/A   Overcast
3:35 AM 21.2 °F 8.9 °F 15.8 °F 80% 30.12 in 10.0 mi North 12.7 mph - N/A   Overcast
3:55 AM 21.2 °F 14.9 °F 15.8 °F 80% 30.12 in 10.0 mi NNE 4.6 mph - N/A   Overcast
4:15 AM 21.2 °F - 15.8 °F 80% 30.13 in 10.0 mi Calm Calm - N/A   Overcast
4:35 AM 21.2 °F 13.6 °F 15.8 °F 80% 30.12 in 10.0 mi North 5.8 mph - N/A   Overcast
4:55 AM 19.4 °F 5.0 °F 15.8 °F 86% 30.11 in 10.0 mi North 16.1 mph - N/A   Overcast
5:15 AM 19.4 °F 3.6 °F 15.8 °F 86% 30.10 in 10.0 mi North 19.6 mph - N/A   Overcast
5:35 AM 19.4 °F 3.2 °F 15.8 °F 86% 30.11 in 10.0 mi North 20.7 mph - N/A   Overcast
6:15 AM 19.4 °F 5.0 °F 15.8 °F 86% 30.12 in 10.0 mi NNE 16.1 mph - N/A   Overcast
6:55 AM 17.6 °F 2.2 °F 15.8 °F 93% 30.13 in 10.0 mi NNE 17.3 mph - N/A   Overcast
7:15 AM 17.6 °F 1.7 °F 15.8 °F 93% 30.13 in 10.0 mi NNE 18.4 mph - N/A   Overcast
7:35 AM 17.6 °F 2.7 °F 15.8 °F 93% 30.14 in 9.0 mi NNE 16.1 mph - N/A   Overcast
7:55 AM 17.6 °F 2.7 °F 15.8 °F 93% 30.13 in 8.0 mi NNE 16.1 mph - N/A   Overcast
8:15 AM 17.6 °F 2.7 °F 15.8 °F 93% 30.13 in 8.0 mi NNE 16.1 mph - N/A   Overcast
8:35 AM 17.6 °F 3.7 °F 15.8 °F 93% 30.14 in 7.0 mi NNE 13.8 mph - N/A   Overcast
8:55 AM 17.6 °F 4.3 °F 15.8 °F 93% 30.14 in 7.0 mi NE 12.7 mph - N/A   Overcast
9:15 AM 19.4 °F 6.6 °F 15.8 °F 86% 30.14 in 6.0 mi NE 12.7 mph - N/A   Overcast
9:35 AM 19.4 °F 6.6 °F 15.8 °F 86% 30.15 in 6.0 mi NE 12.7 mph - N/A   Overcast
9:55 AM 19.4 °F 5.0 °F 15.8 °F 86% 30.16 in 8.0 mi NE 16.1 mph - N/A   Overcast
10:15 AM 19.4 °F 5.0 °F 15.8 °F 86% 30.17 in 9.0 mi NE 16.1 mph - N/A   Overcast
10:35 AM 19.4 °F 6.0 °F 15.8 °F 86% 30.18 in 9.0 mi NE 13.8 mph - N/A   Overcast
10:55 AM 19.4 °F 6.0 °F 17.6 °F 93% 30.18 in 9.0 mi NE 13.8 mph - N/A   Overcast
11:15 AM 19.4 °F 6.0 °F 17.6 °F 93% 30.18 in 9.0 mi NE 13.8 mph - N/A   Overcast
11:35 AM 19.4 °F 7.9 °F 17.6 °F 93% 30.19 in 9.0 mi ENE 10.4 mph - N/A   Overcast
11:55 AM 19.4 °F 7.2 °F 17.6 °F 93% 30.18 in 8.0 mi NE 11.5 mph - N/A   Overcast
12:15 PM 19.4 °F 6.6 °F 17.6 °F 93% 30.17 in 9.0 mi NE 12.7 mph - N/A   Overcast
12:35 PM 19.4 °F 6.6 °F 17.6 °F 93% 30.16 in 8.0 mi NE 12.7 mph - N/A   Overcast
12:55 PM 19.4 °F 5.0 °F 17.6 °F 93% 30.14 in 9.0 mi NE 16.1 mph - N/A   Overcast
1:15 PM 19.4 °F 5.5 °F 15.8 °F 86% 30.13 in 10.0 mi NE 15.0 mph - N/A   Overcast
1:35 PM 19.4 °F 5.0 °F 15.8 °F 86% 30.12 in 10.0 mi NE 16.1 mph - N/A   Overcast
1:55 PM 19.4 °F 5.5 °F 15.8 °F 86% 30.12 in 10.0 mi NE 15.0 mph - N/A   Overcast
2:15 PM 19.4 °F 6.0 °F 15.8 °F 86% 30.12 in 10.0 mi NE 13.8 mph - N/A   Overcast
2:35 PM 19.4 °F 5.5 °F 15.8 °F 86% 30.11 in 10.0 mi NE 15.0 mph - N/A   Overcast
2:55 PM 19.4 °F 5.0 °F 15.8 °F 86% 30.11 in 10.0 mi NNE 16.1 mph - N/A   Overcast
3:15 PM 19.4 °F 5.5 °F 15.8 °F 86% 30.11 in 10.0 mi NNE 15.0 mph - N/A   Overcast
3:35 PM 19.4 °F 5.5 °F 15.8 °F 86% 30.12 in 7.0 mi NE 15.0 mph - N/A Snow Light Snow
3:55 PM 19.4 °F 5.5 °F 15.8 °F 86% 30.13 in 4.0 mi NE 15.0 mph - N/A Snow Light Snow
4:15 PM 19.4 °F 6.6 °F 15.8 °F 86% 30.14 in 4.0 mi NNE 12.7 mph - N/A Snow Light Snow
4:35 PM 19.4 °F 7.9 °F 17.6 °F 93% 30.15 in 1.5 mi NNE 10.4 mph - N/A Snow Light Snow
4:55 PM 19.4 °F 8.6 °F 15.8 °F 86% 30.16 in 2.0 mi NNE 9.2 mph - N/A Snow Light Snow
5:15 PM 19.4 °F 7.9 °F 15.8 °F 86% 30.16 in 0.8 mi NNE 10.4 mph - N/A Snow Light Snow
5:35 PM 19.4 °F 7.2 °F 15.8 °F 86% 30.16 in 1.5 mi NNE 11.5 mph - N/A Snow Light Snow
5:55 PM 19.4 °F 6.0 °F 15.8 °F 86% 30.16 in 10.0 mi NNE 13.8 mph - N/A   Mostly Cloudy
6:15 PM 19.4 °F 6.6 °F 14.0 °F 80% 30.16 in 10.0 mi NNE 12.7 mph - N/A   Overcast
6:35 PM 19.4 °F 6.6 °F 14.0 °F 80% 30.16 in 10.0 mi NNE 12.7 mph - N/A   Overcast
6:55 PM 19.4 °F 7.2 °F 14.0 °F 80% 30.16 in 10.0 mi NNE 11.5 mph - N/A   Overcast
7:35 PM 19.4 °F 7.2 °F 14.0 °F 80% 30.17 in 10.0 mi NNE 11.5 mph - N/A   Overcast
7:55 PM 19.4 °F 6.6 °F 15.8 °F 86% 30.18 in 10.0 mi NNE 12.7 mph - N/A   Overcast
8:35 PM 19.4 °F 6.0 °F 14.0 °F 80% 30.17 in 10.0 mi NNE 13.8 mph - N/A   Overcast
8:55 PM 19.4 °F 6.6 °F 14.0 °F 80% 30.17 in 10.0 mi NNE 12.7 mph - N/A   Overcast
9:35 PM 17.6 °F 5.0 °F 14.0 °F 86% 30.18 in 10.0 mi NNE 11.5 mph - N/A   Overcast
9:55 PM 17.6 °F 5.0 °F 14.0 °F 86% 30.18 in 10.0 mi NNE 11.5 mph - N/A   Overcast
10:15 PM 17.6 °F 5.0 °F 14.0 °F 86% 30.19 in 10.0 mi NNE 11.5 mph - N/A   Overcast
10:35 PM 15.8 °F 2.7 °F 14.0 °F 93% 30.19 in 10.0 mi North 11.5 mph - N/A   Overcast
10:55 PM 15.8 °F 2.1 °F 14.0 °F 93% 30.20 in 10.0 mi North 12.7 mph - N/A   Overcast
11:15 PM 15.8 °F 5.1 °F 12.2 °F 86% 30.21 in 10.0 mi North 8.1 mph - N/A   Overcast
11:35 PM 14.0 °F 5.1 °F 10.4 °F 86% 30.21 in 10.0 mi North 5.8 mph - N/A   Overcast
11:55 PM 14.0 °F 6.5 °F 10.4 °F 86% 30.21 in 10.0 mi North 4.6 mph - N/A   Overcast